TimeAKDT,TemperatureF,Dew PointF,Humidity,Sea Level PressureIn,VisibilityMPH,Wind Direction,Wind SpeedMPH,Gust SpeedMPH,PrecipitationIn,Events,Conditions,WindDirDegrees,DateUTC
12:53 AM,50.0,48.9,96,29.44,5.0,NNE,17.3,-,0.08,Rain,Rain,20,2013-09-07 08:53:00
1:53 AM,50.0,48.9,96,29.46,6.0,NNE,17.3,-,0.09,Rain,Rain,20,2013-09-07 09:53:00
2:53 AM,50.0,48.9,96,29.48,6.0,NE,18.4,25.3,0.10,Rain,Rain,40,2013-09-07 10:53:00
3:53 AM,48.9,48.9,100,29.49,10.0,NNE,12.7,-,0.07,Rain,Light Rain,30,2013-09-07 11:53:00
4:53 AM,50.0,50.0,100,29.53,10.0,NE,5.8,-,0.02,Rain,Light Rain,50,2013-09-07 12:53:00
5:31 AM,48.2,48.2,100,29.53,8.0,NE,4.6,-,0.03,Rain,Light Rain,40,2013-09-07 13:31:00
5:48 AM,48.2,48.2,100,29.54,8.0,NE,3.5,-,0.04,Rain,Light Rain,50,2013-09-07 13:48:00
5:53 AM,48.9,48.9,100,29.55,9.0,ENE,3.5,-,0.04,Rain,Light Rain,60,2013-09-07 13:53:00
6:53 AM,48.9,48.9,100,29.57,9.0,Calm,Calm,-,0.01,Rain,Light Rain,0,2013-09-07 14:53:00
7:42 AM,48.2,48.2,100,29.58,3.0,Calm,Calm,-,0.01,Rain,Light Rain,0,2013-09-07 15:42:00
7:49 AM,48.2,48.2,100,29.58,3.0,Calm,Calm,-,0.01,Rain,Light Rain,0,2013-09-07 15:49:00
7:53 AM,48.9,48.9,100,29.60,3.0,East,3.5,-,0.02,Rain,Light Rain,80,2013-09-07 15:53:00
7:59 AM,48.2,48.2,100,29.59,2.5,East,3.5,-,0.00,Rain,Light Rain,80,2013-09-07 15:59:00
8:06 AM,48.2,48.2,100,29.59,2.5,East,3.5,-,0.00,Rain,Light Rain,90,2013-09-07 16:06:00
8:22 AM,48.2,48.2,100,29.59,3.0,Calm,Calm,-,0.01,Rain,Light Rain,0,2013-09-07 16:22:00
8:53 AM,48.9,48.9,100,29.61,7.0,SSE,3.5,-,0.01,,Overcast,150,2013-09-07 16:53:00
9:53 AM,50.0,50.0,100,29.63,10.0,SSE,5.8,-,N/A,,Overcast,150,2013-09-07 17:53:00
10:53 AM,50.0,50.0,100,29.64,3.0,SSE,8.1,-,N/A,,Overcast,150,2013-09-07 18:53:00
11:53 AM,51.1,51.1,100,29.65,10.0,SSE,6.9,-,N/A,,Overcast,150,2013-09-07 19:53:00
12:53 PM,52.0,51.1,97,29.65,10.0,SE,4.6,-,N/A,,Overcast,130,2013-09-07 20:53:00
12:57 PM,51.8,51.8,100,29.64,10.0,SE,5.8,-,N/A,,Overcast,140,2013-09-07 20:57:00
1:53 PM,52.0,51.1,97,29.64,10.0,SW,4.6,-,N/A,,Overcast,230,2013-09-07 21:53:00
2:53 PM,53.1,51.1,93,29.64,10.0,SW,5.8,-,N/A,,Overcast,230,2013-09-07 22:53:00
3:00 PM,53.6,51.8,94,29.63,10.0,SW,4.6,-,N/A,,Overcast,220,2013-09-07 23:00:00
3:07 PM,53.6,51.8,94,29.62,10.0,SW,5.8,-,N/A,,Overcast,220,2013-09-07 23:07:00
3:53 PM,54.0,51.1,90,29.62,10.0,Calm,Calm,-,N/A,,Overcast,0,2013-09-07 23:53:00
4:06 PM,55.4,51.8,88,29.61,10.0,SSW,5.8,-,N/A,,Overcast,200,2013-09-08 00:06:00
4:10 PM,55.4,51.8,88,29.61,10.0,SW,4.6,-,N/A,,Overcast,230,2013-09-08 00:10:00
4:32 PM,55.4,51.8,88,29.60,10.0,Calm,Calm,-,N/A,,Overcast,0,2013-09-08 00:32:00
4:53 PM,55.9,52.0,87,29.60,10.0,Variable,3.5,-,N/A,,Overcast,0,2013-09-08 00:53:00
5:00 PM,55.4,51.8,88,29.59,10.0,SSW,6.9,-,N/A,,Overcast,210,2013-09-08 01:00:00
5:51 PM,57.2,51.8,82,29.57,10.0,WSW,5.8,-,N/A,,Overcast,250,2013-09-08 01:51:00
5:53 PM,57.0,51.1,81,29.58,10.0,WSW,4.6,-,N/A,,Overcast,250,2013-09-08 01:53:00
6:19 PM,55.4,51.8,88,29.57,10.0,West,6.9,-,N/A,,Overcast,270,2013-09-08 02:19:00
6:38 PM,55.4,51.8,88,29.56,10.0,West,6.9,-,N/A,,Overcast,260,2013-09-08 02:38:00
6:53 PM,55.0,52.0,89,29.57,10.0,NNW,6.9,-,N/A,,Overcast,330,2013-09-08 02:53:00
7:08 PM,53.6,51.8,94,29.56,10.0,NNE,9.2,-,N/A,,Overcast,20,2013-09-08 03:08:00
7:44 PM,53.6,51.8,94,29.55,6.0,North,6.9,-,0.01,Rain,Light Rain,10,2013-09-08 03:44:00
7:49 PM,53.6,51.8,94,29.55,4.0,North,5.8,-,0.02,Rain,Light Rain,360,2013-09-08 03:49:00
7:53 PM,53.1,52.0,96,29.56,3.0,North,5.8,-,0.02,Rain,Light Rain,360,2013-09-08 03:53:00
8:53 PM,52.0,51.1,97,29.55,3.0,Calm,Calm,-,0.05,,Overcast,0,2013-09-08 04:53:00
9:00 PM,51.8,51.8,100,29.54,10.0,Calm,Calm,-,N/A,,Overcast,0,2013-09-08 05:00:00
9:31 PM,51.8,51.8,100,29.54,10.0,Calm,Calm,-,N/A,,Overcast,0,2013-09-08 05:31:00
9:46 PM,51.8,51.8,100,29.54,10.0,Calm,Calm,-,N/A,,Overcast,0,2013-09-08 05:46:00
9:53 PM,52.0,52.0,100,29.54,10.0,Calm,Calm,-,N/A,,Overcast,0,2013-09-08 05:53:00
10:12 PM,51.8,51.8,100,29.53,10.0,NW,3.5,-,0.00,,Overcast,320,2013-09-08 06:12:00
10:20 PM,51.8,51.8,100,29.53,9.0,NW,3.5,-,0.00,,Overcast,310,2013-09-08 06:20:00
10:33 PM,51.8,51.8,100,29.53,6.0,WNW,3.5,-,0.01,,Overcast,300,2013-09-08 06:33:00
10:53 PM,51.1,51.1,100,29.53,8.0,West,3.5,-,0.01,,Overcast,270,2013-09-08 06:53:00
11:53 PM,50.0,50.0,100,29.52,10.0,Calm,Calm,-,N/A,,Overcast,0,2013-09-08 07:53:00